Stations météo

Publicité
Tarbes/Ossun, France (7621): Température de l'air & dewpoint: 20.06.2017 07:00:00 - 26.06.2017 07:00:00 (CEST)Tarbes/Ossun, France (7621): Température de l'air 5cm: 20.06.2017 07:00:00 - 26.06.2017 07:00:00 (CEST)Tarbes/Ossun, France (7621): Température de l'air -20cm & Température de l'air -100cm: 20.06.2017 07:00:00 - 26.06.2017 07:00:00 (CEST)Tarbes/Ossun, France (7621): Vitesse du vent & gusts: 20.06.2017 07:00:00 - 26.06.2017 07:00:00 (CEST)Tarbes/Ossun, France (7621): Direction du vent: 20.06.2017 07:00:00 - 26.06.2017 07:00:00 (CEST)Tarbes/Ossun, France (7621): reduced air pressure: 20.06.2017 07:00:00 - 26.06.2017 07:00:00 (CEST)Tarbes/Ossun, France (7621): visibility: 20.06.2017 07:00:00 - 26.06.2017 07:00:00 (CEST)Tarbes/Ossun, France (7621): Ensoleillement: 20.06.2017 07:00:00 - 26.06.2017 07:00:00 (CEST)Tarbes/Ossun, France (7621): Quantités de précipitations: 20.06.2017 07:00:00 - 26.06.2017 07:00:00 (CEST)
Date & Time tt [°C] td [°C] tt 5cm [°C] tt -20cm [°C] tt -100cm [°C] ff [km/h] ff [knt] fx [km/h] fx [knt] dd ppp [hPa] vv [km] sd [min] rr [mm]
26.06.2017 07:00:00 17,4 16,4 16,3 21,3 18,3 8 4 14 8 S 1011,6 20 0 0,0
26.06.2017 06:00:00 17,3 16,3 15,7 21,3 18,3 5 3 14 7 ESE 1011,4 17 0 0,0
26.06.2017 05:00:00 17,3 16,3 15,0 21,4 18,3 6 3 10 5 S 1011,6 18 0 0,0
26.06.2017 04:00:00 18,1 16,8 16,2 21,5 18,4 3 2 18 10 S 1011,6 16 0 0,4
26.06.2017 03:00:00 18,8 17,3 18,0 21,5 18,3 11 6 24 13 E 1012,4 15 0 3,0
26.06.2017 02:00:00 19,2 18,0 18,5 21,6 18,3 8 4 18 10 S 1013,4 11 0 1,0
26.06.2017 01:00:00 19,6 17,9 - - - 5 3 18 10 S 1013,4 15 - 0,8
26.06.2017 00:00:00 20,3 17,5 19,2 21,6 18,3 11 6 19 11 SW 1014,9 20 0 0,0
25.06.2017 23:00:00 19,8 17,6 - - - 9 5 11 6 SW 1014,1 19 - -
25.06.2017 22:00:00 21,0 17,4 19,6 21,6 18,3 4 2 19 10 ENE 1013,7 20 0 0,0
25.06.2017 21:00:00 21,3 17,5 20,4 21,5 18,3 5 3 19 10 NNE 1014,0 20 0 0,0
25.06.2017 20:00:00 22,1 17,7 20,3 21,3 18,3 10 6 26 14 E 1014,1 20 0 0,0
25.06.2017 19:00:00 23,9 16,4 28,4 21,2 18,3 7 4 18 10 ESE 1015,1 20 0 0,0
25.06.2017 18:00:00 23,9 15,7 30,4 21,0 18,3 6 4 19 10 ENE 1015,2 20 24 0,0
25.06.2017 17:00:00 23,8 16,1 33,6 20,9 18,3 9 5 22 12 ESE 1015,8 20 42 0,0
25.06.2017 16:00:00 22,7 15,8 29,2 20,9 18,4 9 5 23 12 ESE 1016,9 20 6 0,0
25.06.2017 15:00:00 21,6 15,4 27,7 20,8 18,3 10 5 23 12 E 1017,8 20 0 0,0
25.06.2017 14:00:00 20,8 15,1 24,8 20,8 18,3 10 6 21 11 E 1018,6 20 0 0,0
25.06.2017 13:00:00 19,9 14,7 - - - 9 5 21 11 E 1019,1 20 - 0,0
25.06.2017 12:00:00 19,6 14,8 23,4 20,8 18,4 9 5 19 11 ENE 1019,2 20 0 0,0
25.06.2017 11:00:00 18,7 14,6 21,4 20,8 18,3 8 4 16 9 NE 1020,0 20 0 0,0
25.06.2017 10:00:00 17,9 14,6 18,7 20,9 18,4 6 3 13 7 NNE 1020,6 20 0 0,0
25.06.2017 09:00:00 17,1 14,6 17,6 20,9 18,3 6 3 16 9 NNE 1020,4 20 0 0,0
25.06.2017 08:00:00 16,8 14,6 16,8 21,0 18,4 8 5 17 9 N 1020,6 20 0 0,0
25.06.2017 07:00:00 16,7 14,5 16,4 21,1 18,4 4 2 9 5 NNW 1020,8 20 0 0,0
25.06.2017 06:00:00 16,8 14,8 16,4 21,2 18,4 3 2 6 3 NW 1020,4 17 0 0,0
25.06.2017 05:00:00 16,9 14,7 16,5 21,3 18,4 4 2 10 6 WNW 1020,4 19 0 0,0
25.06.2017 04:00:00 17,1 14,9 15,5 21,3 18,3 6 3 11 6 W 1021,2 20 0 0,0
25.06.2017 03:00:00 16,8 14,8 - - - 2 1 9 5 S 1021,2 35 - 0,0
25.06.2017 02:00:00 17,1 14,9 15,7 21,4 18,3 9 5 15 8 WSW 1022,4 20 0 0,0
25.06.2017 01:00:00 17,1 15,1 - - - 4 2 9 5 SW 1022,3 19 - 0,0
25.06.2017 00:00:00 17,0 15,0 15,5 21,6 18,3 6 3 10 5 WSW 1022,4 20 0 0,0
24.06.2017 23:00:00 18,1 15,2 16,9 21,6 18,3 8 4 10 6 S 1022,2 20 0 0,0
24.06.2017 22:00:00 18,4 14,9 18,1 21,7 18,3 8 4 12 6 SSW 1021,3 20 0 0,0
24.06.2017 21:00:00 18,7 14,8 18,9 21,7 18,3 8 4 17 9 SSW 1021,1 52 0 0,0
24.06.2017 20:00:00 19,3 15,0 20,4 21,7 18,4 13 7 21 12 SW 1020,9 42 0 0,0
24.06.2017 19:00:00 19,6 15,3 20,7 21,8 18,3 8 5 20 11 WSW 1021,2 44 0 0,0
24.06.2017 18:00:00 19,7 15,1 20,9 21,8 18,3 9 5 18 10 W 1020,8 48 0 0,0
24.06.2017 17:00:00 19,2 15,3 20,1 21,7 18,3 12 6 23 12 W 1021,0 42 0 0,0
24.06.2017 16:00:00 19,6 14,8 20,6 21,7 18,3 17 9 29 16 W 1021,3 20 0 0,0
24.06.2017 15:00:00 20,6 15,2 24,3 21,7 18,3 10 6 17 9 W 1021,1 20 1 0,0
24.06.2017 14:00:00 20,2 15,4 - - - 5 3 16 9 S 1021,1 19 - -
24.06.2017 13:00:00 17,9 15,0 18,6 21,8 18,4 3 2 18 10 NE 1022,0 16 0 0,0
24.06.2017 12:00:00 18,6 15,1 21,5 21,8 18,3 5 3 16 8 WNW 1021,9 20 0 0,0
24.06.2017 11:00:00 18,3 15,4 18,3 21,9 18,3 4 2 10 5 NW 1022,1 20 11 0,0
24.06.2017 10:00:00 16,7 14,9 - - - 4 2 15 8 WSW 1022,6 19 - 0,2
24.06.2017 09:00:00 16,5 15,2 16,6 22,0 18,3 9 5 15 8 W 1022,6 5 0 0,0
24.06.2017 08:00:00 16,5 15,4 16,3 22,1 18,3 5 3 9 5 WSW 1022,5 13 0 0,0
24.06.2017 07:00:00 16,2 15,2 16,0 22,2 18,3 4 2 6 3 S 1022,4 11 0 0,0
24.06.2017 06:00:00 16,0 15,2 15,9 22,3 18,3 0 0 10 5 N 1023,1 7 0 0,2
24.06.2017 05:00:00 16,1 15,1 15,9 22,4 18,3 9 5 21 11 WNW 1023,7 5 0 0,2
24.06.2017 04:00:00 17,2 16,4 17,1 22,4 18,2 7 4 15 8 W 1023,7 7 0 0,0
24.06.2017 03:00:00 17,5 16,7 17,4 22,6 18,3 6 3 10 5 W 1023,8 2,8 0 0,2
24.06.2017 02:00:00 17,6 16,8 17,2 22,7 18,3 5 3 8 5 SW 1024,2 3,5 0 0,2
24.06.2017 01:00:00 17,6 16,5 17,3 22,7 18,2 5 3 14 8 W 1024,5 5 0 0,0
24.06.2017 00:00:00 18,1 17,3 17,8 22,8 18,2 10 5 18 10 WNW 1024,5 8 0 0,2
23.06.2017 23:00:00 18,8 17,8 18,4 22,9 18,2 7 4 14 8 W 1024,1 4,2 0 0,2
23.06.2017 22:00:00 19,3 17,4 19,1 22,9 18,2 8 4 12 6 W 1023,6 8 0 0,0
23.06.2017 21:00:00 19,7 17,5 19,9 23,0 18,2 8 4 14 8 W 1023,0 19 0 0,0
23.06.2017 20:00:00 19,5 17,8 19,8 23,0 18,2 6 3 16 9 WNW 1022,7 11 0 0,0
23.06.2017 19:00:00 20,4 17,4 21,3 23,0 18,2 12 6 18 10 WNW 1022,4 20 0 0,0
23.06.2017 18:00:00 21,2 17,0 22,2 23,0 18,1 9 5 17 9 WNW 1022,4 37 0 0,0
23.06.2017 17:00:00 21,3 17,1 22,7 23,0 18,1 11 6 19 11 WNW 1022,4 20 0 0,0
23.06.2017 16:00:00 22,9 16,7 24,3 23,1 18,2 5 3 16 9 SW 1022,1 60 3 0,0
23.06.2017 15:00:00 21,0 16,4 22,5 23,1 18,2 7 4 25 14 W 1022,6 20 0 0,0
23.06.2017 14:00:00 20,9 17,1 23,2 23,1 18,1 10 5 19 11 W 1022,9 20 0 0,0
23.06.2017 13:00:00 21,1 17,3 23,7 23,2 18,1 10 5 18 10 W 1022,9 20 0 0,0
23.06.2017 12:00:00 20,5 16,9 23,2 23,3 18,1 13 7 22 12 WNW 1023,0 20 0 0,0
23.06.2017 11:00:00 20,1 17,1 21,1 23,4 18,1 9 5 17 9 W 1023,1 18 0 0,0
23.06.2017 10:00:00 19,0 17,3 20,2 23,5 18,1 9 5 17 9 W 1023,3 40 0 0,0
23.06.2017 09:00:00 18,2 17,0 18,0 23,6 18,1 4 2 15 8 W 1023,1 20 0 0,0
23.06.2017 08:00:00 17,9 17,1 17,9 23,7 18,1 8 4 14 8 WNW 1022,9 8 0 0,0
23.06.2017 07:00:00 17,9 17,1 - - - 8 4 16 9 W 1022,7 4,7 - 0,2
23.06.2017 06:00:00 17,8 17,0 17,7 24,0 18,1 8 5 16 9 W 1022,5 5 0 0,0
23.06.2017 05:00:00 18,0 17,2 17,7 24,2 18,1 5 3 13 7 W 1022,3 5 0 0,2
23.06.2017 04:00:00 17,9 16,9 17,7 24,3 18,1 8 4 25 13 W 1022,1 16 0 0,0
23.06.2017 03:00:00 18,0 17,2 17,7 24,5 18,1 12 6 23 12 W 1022,1 7 0 0,0
23.06.2017 02:00:00 18,0 17,2 17,7 24,6 18,1 14 8 25 13 W 1022,0 6 0 0,0
23.06.2017 01:00:00 18,4 17,4 18,1 24,7 18,0 13 7 26 14 W 1021,7 6 0 0,0
23.06.2017 00:00:00 18,7 17,5 18,5 24,8 18,0 13 7 27 15 W 1021,3 6 0 0,0
22.06.2017 23:00:00 19,3 17,8 19,1 24,8 18,0 16 8 27 15 W 1020,6 14 0 0,0
22.06.2017 22:00:00 20,0 18,3 - - - 15 8 34 18 W 1019,7 6 - 0,0
22.06.2017 21:00:00 22,1 18,7 22,7 24,7 18,0 18 10 34 18 W 1018,7 10 30 0,0
22.06.2017 20:00:00 25,5 20,1 - - - 21 11 29 16 WNW 1017,3 9 - -
22.06.2017 19:00:00 28,4 21,2 34,1 24,3 18,0 19 11 34 18 WNW 1016,5 9 60 0,0
22.06.2017 18:00:00 30,1 22,0 37,4 24,0 18,0 21 12 47 25 WNW 1015,8 14 60 0,0
22.06.2017 17:00:00 32,0 22,4 40,3 23,7 18,0 24 13 38 20 WNW 1015,2 16 60 0,0
22.06.2017 16:00:00 33,4 21,2 43,4 23,5 18,0 16 9 28 15 NW 1015,0 20 60 0,0
22.06.2017 15:00:00 34,0 20,7 44,9 23,2 18,0 10 5 29 16 N 1015,1 20 60 0,0
22.06.2017 14:00:00 32,6 21,8 44,7 23,1 18,0 15 8 26 14 WNW 1015,5 18 60 0,0
22.06.2017 13:00:00 32,4 17,5 44,7 23,0 17,9 10 5 19 10 N 1015,7 20 60 0,0
22.06.2017 12:00:00 31,1 18,1 42,2 23,0 17,9 8 5 16 9 NNW 1016,0 42 60 0,0
22.06.2017 11:00:00 29,1 17,3 38,0 23,1 17,9 8 5 18 10 NW 1016,4 60 60 0,0
22.06.2017 10:00:00 28,6 16,8 31,6 23,2 17,9 9 5 16 9 WNW 1016,5 60 60 0,0
22.06.2017 09:00:00 27,1 12,7 27,1 23,3 17,9 13 7 20 11 S 1016,1 20 48 0,0
22.06.2017 08:00:00 25,3 12,5 20,6 23,5 17,9 12 7 20 11 S 1015,9 31 60 0,0
22.06.2017 07:00:00 22,4 12,3 18,6 23,7 17,9 14 7 19 10 S 1015,9 40 15 0,0
22.06.2017 06:00:00 21,9 12,4 15,6 23,8 17,9 14 7 21 11 S 1015,7 47 0 0,0
22.06.2017 05:00:00 22,4 12,6 15,5 24,0 17,9 5 3 8 5 SSE 1015,5 59 0 0,0
22.06.2017 04:00:00 22,6 12,8 15,8 24,1 17,9 6 3 11 6 S 1015,6 59 0 0,0
22.06.2017 03:00:00 23,9 12,8 20,8 24,2 17,9 11 6 16 9 S 1015,5 59 0 0,0
22.06.2017 02:00:00 23,6 13,5 20,8 24,3 17,9 10 5 16 9 SSE 1015,9 59 0 0,0
22.06.2017 01:00:00 24,3 13,8 - - - 11 6 18 10 S 1015,9 15 - 0,0
22.06.2017 00:00:00 25,5 14,3 21,0 24,5 17,9 13 7 17 9 SSE 1015,8 46 0 0,0
21.06.2017 23:00:00 25,2 13,7 22,1 24,5 17,9 11 6 15 8 S 1015,5 20 0 0,0
21.06.2017 22:00:00 26,9 13,6 24,1 24,4 17,8 9 5 27 15 S 1014,7 60 18 0,0
21.06.2017 21:00:00 29,8 12,2 - - - 13 7 29 16 SSE 1014,2 55 - 0,0
21.06.2017 20:00:00 30,9 12,8 31,7 24,1 17,8 22 12 41 22 S 1013,6 58 50 0,0
21.06.2017 19:00:00 32,9 13,0 37,7 23,9 17,9 27 15 39 21 SSW 1013,2 41 60 0,0
21.06.2017 18:00:00 34,1 15,1 42,9 23,5 17,8 11 6 22 12 WNW 1012,8 18 60 0,0
21.06.2017 17:00:00 34,7 15,1 45,5 23,2 17,8 8 5 23 12 WNW 1012,8 18 60 0,0
21.06.2017 16:00:00 34,8 15,2 46,0 23,0 17,8 12 6 25 14 WNW 1012,7 20 60 0,0
21.06.2017 15:00:00 33,9 14,4 46,2 22,7 17,8 13 7 26 14 NW 1013,3 51 60 0,0
21.06.2017 14:00:00 33,7 15,2 46,3 22,6 17,8 12 7 25 13 NNW 1013,9 19 60 0,0
21.06.2017 13:00:00 33,0 14,1 44,1 22,5 17,8 9 5 19 11 N 1014,4 60 60 0,0
21.06.2017 12:00:00 31,8 14,9 43,6 22,5 17,8 10 5 19 10 N 1014,6 59 60 0,0
21.06.2017 11:00:00 30,9 14,5 40,0 22,5 17,8 6 3 14 7 NE 1014,6 51 60 0,0
21.06.2017 10:00:00 29,2 14,6 33,2 22,6 17,8 5 3 15 8 ESE 1014,6 53 60 0,0
21.06.2017 09:00:00 26,5 13,9 25,2 22,7 17,7 8 5 17 9 SSE 1015,0 53 60 0,0
21.06.2017 08:00:00 23,0 13,5 19,1 22,9 17,8 8 4 14 8 SSE 1015,4 34 55 0,0
21.06.2017 07:00:00 20,5 12,5 18,4 23,0 17,7 9 5 21 11 S 1015,6 58 15 0,0
21.06.2017 06:00:00 21,0 12,2 17,2 23,1 17,7 11 6 17 9 S 1015,2 60 0 0,0
21.06.2017 05:00:00 21,2 12,3 18,6 23,3 17,7 14 7 20 11 S 1015,2 60 0 0,0
21.06.2017 04:00:00 21,7 12,8 16,9 23,4 17,7 13 7 21 11 S 1015,5 60 0 0,0
21.06.2017 03:00:00 19,0 13,4 16,8 23,6 17,7 7 4 12 6 S 1016,3 60 0 0,0
21.06.2017 02:00:00 20,3 13,3 18,2 23,7 17,7 9 5 16 9 SSW 1016,3 60 0 0,0
21.06.2017 01:00:00 23,5 12,2 16,9 23,8 17,7 6 3 14 8 ESE 1016,1 60 0 0,0
21.06.2017 00:00:00 24,8 11,4 - - - 8 4 39 21 SW 1015,8 60 - 0,0
20.06.2017 23:00:00 25,8 11,9 21,8 24,0 17,7 21 11 29 16 S 1015,6 58 0 0,0
20.06.2017 22:00:00 26,5 11,8 24,7 24,0 17,6 13 7 39 21 S 1015,2 60 5 0,0
20.06.2017 21:00:00 27,9 11,0 27,0 24,1 17,7 21 12 40 22 S 1015,0 60 1 0,0
20.06.2017 20:00:00 28,1 12,0 28,2 24,0 17,6 20 11 52 28 SSE 1014,5 57 0 0,0
20.06.2017 19:00:00 27,6 13,9 28,1 24,0 17,6 29 16 44 24 S 1014,4 55 0 0,0
20.06.2017 18:00:00 28,3 14,5 29,1 23,9 17,6 13 7 27 15 SE 1015,0 49 0 0,0
20.06.2017 17:00:00 29,7 16,8 31,8 23,7 17,6 7 4 23 12 S 1014,8 30 0 0,0
20.06.2017 16:00:00 31,0 13,7 35,9 23,6 17,6 15 8 28 15 SE 1015,1 43 2 0,0
20.06.2017 15:00:00 32,1 15,1 39,4 23,4 17,5 14 8 29 16 SE 1015,0 20 17 0,0
20.06.2017 14:00:00 33,6 14,1 40,1 23,2 17,5 13 7 22 12 E 1015,0 20 38 0,0
20.06.2017 13:00:00 32,2 13,4 39,9 23,2 17,5 11 6 22 12 ESE 1015,4 32 16 0,0
20.06.2017 12:00:00 33,0 12,6 44,4 23,1 17,5 7 4 21 12 ESE 1015,3 20 60 0,0
20.06.2017 11:00:00 31,8 14,0 37,1 23,2 17,5 9 5 17 9 ENE 1015,7 27 49 0,0
20.06.2017 10:00:00 29,6 17,4 33,7 23,3 17,5 5 3 10 5 E 1015,8 20 52 0,0
20.06.2017 09:00:00 26,9 17,4 25,5 23,5 17,5 6 4 12 6 SSE 1016,2 41 60 0,0
20.06.2017 08:00:00 23,2 17,2 19,2 23,6 17,5 9 5 18 10 S 1016,5 34 40 0,0
20.06.2017 07:00:00 21,0 16,8 16,6 23,7 17,5 11 6 18 10 SSE 1016,7 31 0 0,0

tt = Température de l'air
td = dewpoint
tt 5cm = Température de l'air 5cm
tt -20cm = Température de l'air -20cm
tt -100cm = Température de l'air -100cm
ff = Vitesse du vent
fx = gusts
dd = Direction du vent
ppp = reduced air pressure
vv = visibility
sd = Ensoleillement
rr = Quantités de précipitations

stations d'obs. à proximité